Abingdon, VA

1:02 AM EDT on April 25, 2017 (GMT -0400)
Virginia Highlands

Weather History for KVJI - November, 2012

Change the Weather History Date:

Monday, November 19, 2012

  Actual Average (KTRI) Record (KTRI)
Temperature  
Mean Temperature 52 °F -  
Max Temperature 62 °F 59 °F 78 °F (1985)
Min Temperature 41 °F 35 °F 13 °F (2014)
Degree Days  
Heating Degree Days 14    
Growing Degree Days 2 (Base 50)    
Moisture  
Dew Point 43 °F    
Average Humidity 78    
Maximum Humidity 97    
Minimum Humidity 55    
Precipitation  
Precipitation 0.00 in - - ()
Sea Level Pressure  
Sea Level Pressure 30.28 in    
Wind  
Wind Speed 7 mph (East)    
Max Wind Speed 14 mph    
Max Gust Speed -    
Visibility 10 miles    
Events      
Averages and records for this station are not official NWS values.
T = Trace of Precipitation, MM = Missing Value Source: NWS Daily Summary

Daily Weather History Graph

Daily Weather History Graph

Search for Another Location

Airport or City:

Trip Planner

Search our weather history database for the weather conditions in past years. The results will help you decide how hot, cold, wet, or windy it might be!

Date:

Astronomy

Nov. 19, 2012 Rise Set
Actual Time 7:10 AM EST 5:16 PM EST
Civil Twilight 6:42 AM EST 5:44 PM EST
Nautical Twilight 6:11 AM EST 6:15 PM EST
Astronomical Twilight 5:40 AM EST 6:46 PM EST
Moon 12:16 PM EST (11/19) 11:37 PM EST (11/19)
Length of Visible Light 11h 01m
Length of Day
10h 05m
Waxing Crescent, 40% of the Moon is Illuminated
Nov 19
Waxing Crescent
Nov 20
First Quarter
Nov 28
Full
Dec 6
Last Quarter
Dec 13
New

Hourly Weather History & Observations

Time (EST) Temp. Windchill Dew Point Humidity Pressure Visibility Wind Dir Wind Speed Gust Speed Precip Events Conditions
12:15 AM 43.9 °F 38.8 °F 35.6 °F 73% 30.37 in 10.0 mi East 9.2 mph - N/A   Clear
12:35 AM 43.5 °F 37.9 °F 35.4 °F 73% 30.37 in 10.0 mi East 10.4 mph - N/A   Clear
12:55 AM 43.7 °F 38.1 °F 35.2 °F 72% 30.36 in 10.0 mi ENE 10.4 mph - N/A   Clear
1:15 AM 43.5 °F 37.9 °F 35.6 °F 74% 30.35 in 10.0 mi East 10.4 mph - N/A   Clear
1:35 AM 42.8 °F 37.5 °F 35.1 °F 74% 30.36 in 10.0 mi ENE 9.2 mph - N/A   Clear
1:55 AM 42.8 °F 37.0 °F 34.9 °F 74% 30.36 in 10.0 mi East 10.4 mph - N/A   Clear
2:15 AM 42.8 °F 38.0 °F 35.1 °F 74% 30.36 in 10.0 mi East 8.1 mph - N/A   Clear
2:35 AM 42.4 °F 37.0 °F 35.6 °F 77% 30.36 in 10.0 mi East 9.2 mph - N/A   Clear
2:55 AM 42.3 °F 37.3 °F 36.1 °F 79% 30.36 in 10.0 mi East 8.1 mph - N/A   Clear
3:15 AM 42.1 °F 36.6 °F 36.5 °F 81% 30.35 in 10.0 mi East 9.2 mph - N/A   Clear
3:35 AM 42.1 °F 37.1 °F 37.0 °F 82% 30.35 in 10.0 mi East 8.1 mph - N/A   Clear
3:55 AM 41.5 °F 37.1 °F 36.9 °F 83% 30.35 in 10.0 mi East 6.9 mph - N/A   Clear
4:15 AM 41.5 °F 37.1 °F 37.4 °F 85% 30.34 in 10.0 mi ENE 6.9 mph - N/A   Clear
5:15 AM 42.1 °F 36.6 °F 39.2 °F 90% 30.35 in 10.0 mi East 9.2 mph - N/A   Clear
5:55 AM 42.1 °F 37.7 °F 40.1 °F 93% 30.35 in 10.0 mi East 6.9 mph - N/A   Clear
6:15 AM 42.4 °F 39.6 °F 40.3 °F 92% 30.35 in 10.0 mi ENE 4.6 mph - N/A   Scattered Clouds
6:35 AM 42.3 °F 38.6 °F 40.3 °F 93% 30.35 in 10.0 mi East 5.8 mph - N/A   Mostly Cloudy
6:55 AM 42.3 °F 37.9 °F 40.3 °F 93% 30.35 in 10.0 mi East 6.9 mph - N/A   Overcast
7:15 AM 42.4 °F 38.8 °F 40.1 °F 91% 30.34 in 10.0 mi East 5.8 mph - N/A   Overcast
7:35 AM 41.9 °F 36.9 °F 40.1 °F 93% 30.34 in 10.0 mi East 8.1 mph - N/A   Scattered Clouds
7:55 AM 42.8 °F 38.6 °F 41.0 °F 93% 30.34 in 10.0 mi East 6.9 mph - N/A   Clear
8:15 AM 44.6 °F 39.7 °F 41.9 °F 90% 30.34 in 10.0 mi East 9.2 mph - N/A   Clear
8:35 AM 45.9 °F 40.8 °F 42.8 °F 89% 30.34 in 10.0 mi East 10.4 mph - N/A   Clear
8:55 AM 46.9 °F - 43.2 °F 87% 30.34 in 10.0 mi East 13.8 mph - N/A   Clear
9:15 AM 48.0 °F - 43.7 °F 85% 30.35 in 10.0 mi East 9.2 mph - N/A   Clear
9:35 AM 48.7 °F - 44.2 °F 84% 30.34 in 10.0 mi East 11.5 mph - N/A   Clear
9:55 AM 50.0 °F - 44.4 °F 81% 30.34 in 10.0 mi East 9.2 mph - N/A   Clear
10:15 AM 51.1 °F - 44.8 °F 79% 30.34 in 10.0 mi East 8.1 mph - N/A   Clear
10:35 AM 52.3 °F - 45.1 °F 76% 30.34 in 10.0 mi ESE 9.2 mph - N/A   Clear
10:55 AM 52.9 °F - 45.5 °F 76% 30.33 in 10.0 mi ESE 8.1 mph - N/A   Clear
11:15 AM 54.5 °F - 46.0 °F 73% 30.32 in 10.0 mi East 5.8 mph - N/A   Clear
11:35 AM 56.1 °F - 46.9 °F 71% 30.31 in 10.0 mi SE 6.9 mph - N/A   Clear
11:55 AM 57.4 °F - 47.5 °F 70% 30.30 in 10.0 mi SE 3.5 mph - N/A   Clear
12:15 PM 57.4 °F - 47.5 °F 70% 30.30 in 10.0 mi Calm Calm - N/A   Clear
12:35 PM 58.5 °F - 48.0 °F 68% 30.28 in 10.0 mi SSW 4.6 mph - N/A   Clear
12:55 PM 60.1 °F - 48.4 °F 65% 30.27 in 10.0 mi SSE 4.6 mph - N/A   Clear
1:15 PM 61.0 °F - 47.8 °F 62% 30.26 in 10.0 mi SW 5.8 mph - N/A   Clear
1:35 PM 60.8 °F - 47.1 °F 61% 30.25 in 10.0 mi Calm Calm - N/A   Clear
1:55 PM 61.2 °F - 46.0 °F 58% 30.24 in 10.0 mi Calm Calm - N/A   Clear
2:15 PM 62.1 °F - 47.1 °F 58% 30.23 in 10.0 mi Calm Calm - N/A   Clear
2:35 PM 62.6 °F - 46.4 °F 55% 30.23 in 10.0 mi SW 3.5 mph - N/A   Clear
2:55 PM 62.6 °F - 47.1 °F 57% 30.23 in 10.0 mi West 6.9 mph - N/A   Clear
3:15 PM 62.6 °F - 46.4 °F 55% 30.23 in 10.0 mi NNW 5.8 mph - N/A   Clear
3:35 PM 62.1 °F - 46.6 °F 57% 30.23 in 10.0 mi WSW 4.6 mph - N/A   Clear
3:55 PM 61.5 °F - 46.2 °F 57% 30.23 in 10.0 mi West 5.8 mph - N/A   Clear
4:15 PM 60.8 °F - 46.2 °F 59% 30.23 in 10.0 mi SW 5.8 mph - N/A   Clear
4:35 PM 59.4 °F - 45.7 °F 61% 30.23 in 10.0 mi WSW 4.6 mph - N/A   Clear
4:55 PM 58.8 °F - 46.2 °F 63% 30.23 in 10.0 mi WSW 3.5 mph - N/A   Clear
5:15 PM 57.6 °F - 45.7 °F 65% 30.22 in 10.0 mi Calm Calm - N/A   Clear
5:35 PM 55.4 °F - 45.1 °F 68% 30.22 in 10.0 mi Calm Calm - N/A   Clear
5:55 PM 53.8 °F - 44.8 °F 72% 30.22 in 10.0 mi Calm Calm - N/A   Clear
6:15 PM 52.7 °F - 44.6 °F 74% 30.22 in 10.0 mi Calm Calm - N/A   Clear
6:35 PM 50.0 °F - 44.2 °F 81% 30.22 in 10.0 mi Calm Calm - N/A   Clear
6:55 PM 48.7 °F - 43.7 °F 83% 30.22 in 10.0 mi Calm Calm - N/A   Clear
7:15 PM 48.7 °F - 43.9 °F 83% 30.22 in 10.0 mi Calm Calm - N/A   Clear
7:35 PM 46.8 °F - 43.0 °F 87% 30.22 in 10.0 mi Calm Calm - N/A   Clear
7:55 PM 47.1 °F - 43.2 °F 86% 30.22 in 10.0 mi Calm Calm - N/A   Clear
8:15 PM 46.0 °F - 42.8 °F 88% 30.22 in 10.0 mi Calm Calm - N/A   Clear
8:35 PM 46.6 °F - 42.6 °F 86% 30.21 in 10.0 mi Calm Calm - N/A   Clear
8:55 PM 47.1 °F - 43.9 °F 88% 30.22 in 10.0 mi Calm Calm - N/A   Clear
9:15 PM 46.6 °F - 43.9 °F 90% 30.21 in 10.0 mi Calm Calm - N/A   Clear
9:35 PM 43.9 °F - 42.1 °F 93% 30.20 in 10.0 mi Calm Calm - N/A   Clear
9:55 PM 45.1 °F - 42.8 °F 91% 30.20 in 10.0 mi Calm Calm - N/A   Clear
10:15 PM 43.9 °F - 42.1 °F 93% 30.20 in 10.0 mi Calm Calm - N/A   Clear
10:35 PM 44.1 °F - 42.4 °F 94% 30.20 in 10.0 mi Calm Calm - N/A   Clear
10:55 PM 43.0 °F 41.3 °F 42.3 °F 97% 30.20 in 10.0 mi SE 3.5 mph - N/A   Clear
11:15 PM 42.3 °F - 41.4 °F 97% 30.20 in 10.0 mi Calm Calm - N/A   Clear
11:35 PM 44.1 °F 42.5 °F 43.0 °F 96% 30.20 in 10.0 mi East 3.5 mph - N/A   Clear
11:55 PM 44.1 °F - 42.4 °F 94% 30.19 in 10.0 mi Calm Calm - N/A   Clear